Location: *
(45.8589°N, 4.7139°E)
Time: 04:03:00
(UTC+00:00)

SL-24 R/B - RUBIN 2 - Pass Details

Date: 09 April 2020
Orbit: 569 x 1026 km, 64.6° (Epoch: 02 June)

Event Time Altitude Azimuth Distance (km) Brightness Sun altitude
Rises 19:21:10 0° 215° (SW) 3,238 7.4 -10.8°
Reaches altitude 10° 19:23:26 10° 216° (SW) 2,382 6.7 -11.2°
Maximum altitude 19:29:00 88° 303° (WNW) 890 4.3 -12.1°
Drops below altitude 10° 19:35:21 10° 37° (NE) 2,696 6.7 -13.1°
Sets 19:38:03 0° 37° (NE) 3,695 7.4 -13.5°
